Home > Weather > Clarington > Past weeks

Flag for Canada Past Weather in Clarington, Ontario, Canada — Yesterday and Last 2 Weeks

Now
82 °F

Sunny.


Feels Like: 82 °F
Forecast: 66 / 80 °F
Wind: 10 mph from North

Location: Peterborough Airport

Current Time: Jul 23, 2016 at 9:03:57 PM

Latest Report: Jul 23, 2016 at 8:00 PM


Visibility: 9 mi

Pressure: 29.91 "Hg

Humidity: 42%

Dew Point: 57 °F

Location of ClaringtonLocation

Past Weather in Clarington — Graph

°F

Clarington Temperature Yesterday

Maximum temperature yesterday: 93 °F (at 3:00 PM)
Minimum temperature yesterday: 68 °F (at 6:00 AM)
Average temperature yesterday: 81 °F

High & Low Weather Summary for the Past Weeks

 TemperatureHumidityPressure
High93 °F (Jul 22, 3:00 PM)100% (Jul 9, 12:00 AM)30.27 "Hg (Jul 9, 12:00 AM)
Low45 °F (Jul 20, 6:00 AM)27% (Jul 22, 6:00 PM)29.66 "Hg (Jul 9, 4:00 AM)
Average70 °F70%29.95 "Hg
* Reported Jul 8 8:00 PM — Jul 23 8:00 PM, Clarington, Weather by CustomWeather, © 2016

Note: Actual official high and low records may vary slightly from our data, if they occured in-between our weather recording intervals... More about our weather records

Advertising

Clarington Weather History for the Previous 24 Hours

Scroll right to see more
 ConditionsComfort  
Time TempWeatherWind HumidityBarometerVisibility
8:00 PM
Sat, Jul 23
82 °FSunny.10 mph42%29.91 "Hg9 mi
7:00 PM86 °FSunny.13 mph38%29.90 "Hg9 mi
6:00 PM88 °FPartly sunny.13 mph35%29.90 "Hg9 mi
5:00 PM88 °FPassing clouds.17 mph35%29.89 "Hg9 mi
4:00 PM88 °FSunny.17 mph33%29.89 "Hg9 mi
3:00 PM88 °FSunny.13 mph35%29.89 "Hg9 mi
2:00 PM86 °FScattered clouds.10 mph43%29.89 "Hg9 mi
1:00 PM88 °FPassing clouds.18 mph38%29.89 "Hg9 mi
12:00 PM86 °FPassing clouds.13 mph46%29.89 "Hg9 mi
11:00 AM84 °FSunny.13 mph45%29.89 "Hg9 mi
10:00 AM81 °FSunny.10 mph54%29.88 "Hg9 mi
9:00 AM73 °FScattered clouds.14 mph69%29.88 "Hg9 mi
8:00 AM72 °FPartly sunny.14 mph73%29.87 "Hg9 mi
7:00 AM70 °FSunny.7 mph73%29.87 "Hg9 mi
6:00 AM66 °FClear.8 mph83%29.86 "Hg9 mi
5:00 AM68 °FClear.9 mph78%29.86 "Hg9 mi
4:00 AM70 °FClear.10 mph73%29.85 "Hg9 mi
3:00 AM70 °FClear.8 mph73%29.84 "Hg9 mi
2:00 AM70 °FClear.8 mph73%29.83 "Hg9 mi
1:00 AM73 °FClear.10 mph65%29.84 "Hg9 mi
12:00 AM73 °FClear.10 mph61%29.85 "Hg9 mi
11:00 PM
Fri, Jul 22
72 °FClear.8 mph65%29.85 "Hg9 mi
10:00 PM77 °FClear.10 mph51%29.84 "Hg9 mi
9:00 PM81 °FSunny.13 mph45%29.83 "Hg9 mi
Weather by CustomWeather, © 2016

See weather overviewHow to use our weather pages